Simultaneous Nadir Overpasses (SNOs) Predictions

Prediction of SNOs between LANDSAT-8 and NOAA-19 Satellite Orbit:

Table of predicted SNOs for the next 14.0 days since TLE Epoch: 3/4/2023
Index Date (LANDSAT-8) Time (LANDSAT-8) Lat,Lon (LANDSAT-8) SZA (LANDSAT-8 ) Date (NOAA-19) Time (NOAA-19) Lat,Lon (NOAA-19) SZA (NOAA-19 ) Distance(km) Time Diff (sec)
1 03/05/2023 19:59:23 -80.93, 96.94 91.68 03/05/2023 19:58:09 -80.93, 97.03 91.69 1.54 74
2 03/05/2023 20:48:49 80.93, -95.33 88.33 03/05/2023 20:49:13 80.93, -95.34 88.34 0.42 24
3 03/08/2023 02:22:31 -80.94, 1.38 92.51 03/08/2023 02:21:47 -80.93, 1.36 92.53 1.59 44
4 03/08/2023 03:11:58 80.92, 168.74 87.44 03/08/2023 03:12:52 80.93, 168.58 87.46 3.03 54
5 03/10/2023 08:45:40 -80.92, -94.73 93.42 03/10/2023 08:45:26 -80.93, -94.75 93.42 1.28 14
6 03/12/2023 14:19:20 80.93, 2.04 85.75 03/12/2023 14:18:09 80.93, 2.22 85.74 3.13 71
7 03/12/2023 15:08:47 -80.93, 169.65 94.27 03/12/2023 15:09:03 -80.93, 169.81 94.25 2.93 16
8 03/14/2023 20:42:27 80.93, -93.80 84.86 03/14/2023 20:41:47 80.93, -93.79 84.85 0.25 40
9 03/14/2023 21:31:54 -80.93, 73.82 95.16 03/14/2023 21:32:41 -80.93, 73.92 95.13 1.87 47



Historial Predications of SNOs between LANDSAT-8 and NOAA-19
